Location: Avon
(37.7514°N, 90.2235°W)
Time: 00:52:48
(UTC+00:00)

Vanguard 1 - All Passes

Search period start: 05 November 2024 00:00
Search period end: 15 November 2024 00:00
Orbit: 649 x 3824 km, 34.3° (Epoch: 04 November)

Date Brightness Start Highest point End Pass type
(mag) Time Alt. Az. Time Alt. Az. Time Alt. Az.
05 Nov - 03:29:07 10° SSW 03:33:31 24° SE 03:39:47 10° E night (unlit)
05 Nov - 05:46:13 10° WSW 05:53:05 66° SSE 06:06:01 10° E visible
05 Nov - 08:05:25 10° W 08:15:11 73° S 08:33:36 10° ESE visible
05 Nov - 10:25:54 10° W 10:38:58 51° SSW 10:59:41 10° SE visible
05 Nov - 12:50:14 10° W 13:03:22 24° SW 13:19:20 10° S daylight
06 Nov - 03:47:46 10° SSW 03:52:38 32° SSE 04:00:11 10° E night (unlit)
06 Nov - 06:05:37 10° WSW 06:12:43 71° S 06:26:15 10° E visible
06 Nov - 08:24:58 10° W 08:35:01 68° SSW 08:53:41 10° ESE visible
06 Nov - 10:45:49 10° W 10:58:50 43° SSW 11:18:42 10° SSE visible
06 Nov - 13:12:22 10° WSW 13:23:06 17° SW 13:35:31 10° S daylight
07 Nov - 04:06:43 10° SW 04:11:54 42° SSE 04:20:23 10° E night (unlit)
07 Nov - 06:25:04 10° W 06:32:24 74° S 06:46:28 10° E visible
07 Nov - 08:44:34 10° W 08:54:51 62° SSW 09:13:35 10° ESE visible
07 Nov - 11:05:57 10° W 11:18:41 36° SSW 11:37:16 10° SSE visible
07 Nov - 13:37:34 10° WSW 13:42:53 11° SW 13:48:34 10° SSW daylight
08 Nov - 02:10:39 10° SSE 02:12:28 12° SE 02:14:29 10° ESE night (unlit)
08 Nov - 04:25:53 10° SW 04:31:16 52° SSE 04:40:28 10° E night (unlit)
08 Nov - 06:44:32 10° W 06:52:06 73° S 07:06:39 10° ESE visible
08 Nov - 09:04:13 10° W 09:14:41 54° SSW 09:33:14 10° SE visible
08 Nov - 11:26:26 10° W 11:38:31 28° SW 11:55:17 10° SSE visible
09 Nov - 02:28:13 10° S 02:31:34 19° SE 02:35:43 10° E night (unlit)
09 Nov - 04:45:09 10° WSW 04:50:44 61° SSE 05:00:32 10° E night (unlit)
09 Nov - 07:04:02 10° W 07:11:50 70° S 07:26:47 10° ESE visible
09 Nov - 09:23:56 10° W 09:34:31 47° SSW 09:52:35 10° SE visible
09 Nov - 11:47:30 10° W 11:58:22 22° SW 12:12:32 10° S visible
10 Nov - 02:46:45 10° SSW 02:50:44 27° SSE 02:56:05 10° E night (unlit)
10 Nov - 05:04:31 10° WSW 05:10:17 67° S 05:20:36 10° E night (unlit)
10 Nov - 07:23:33 10° W 07:31:34 64° SSW 07:46:48 10° ESE visible
10 Nov - 09:43:49 10° W 09:54:21 39° SSW 10:11:33 10° SSE visible
10 Nov - 12:09:47 10° WSW 12:18:14 15° SW 12:28:24 10° S visible
11 Nov - 03:05:39 10° SW 03:09:59 36° SSE 03:16:10 10° E night (unlit)
11 Nov - 05:23:56 10° W 05:29:53 70° S 05:40:40 10° E night (unlit)
11 Nov - 07:43:05 10° W 07:51:19 57° SSW 08:06:38 10° ESE visible
11 Nov - 10:03:55 10° W 10:14:12 32° SSW 10:30:05 10° SSE visible
12 Nov - 03:24:46 10° SW 03:29:20 46° SSE 03:36:08 10° E night (unlit)
12 Nov - 05:43:23 10° W 05:49:30 69° S 06:00:42 10° ESE visible
12 Nov - 08:02:42 10° W 08:11:03 49° SSW 08:26:13 10° SE visible
12 Nov - 10:24:25 10° W 10:34:05 25° SSW 10:48:00 10° SSE visible
13 Nov - 01:26:58 10° S 01:29:40 16° SSE 01:32:36 10° ESE visible
13 Nov - 03:44:03 10° WSW 03:48:46 56° SSE 03:56:03 10° E night (unlit)
13 Nov - 06:02:50 10° W 06:09:08 65° S 06:20:41 10° ESE visible
13 Nov - 08:22:23 10° W 08:30:49 41° SSW 08:45:29 10° SE visible
13 Nov - 10:45:38 10° WSW 10:53:58 18° SSW 11:05:00 10° S visible
14 Nov - 01:45:23 10° SSW 01:48:54 23° SSE 01:52:56 10° E visible
14 Nov - 04:03:24 10° WSW 04:08:15 63° S 04:15:56 10° E night (unlit)
14 Nov - 06:22:19 10° W 06:28:46 59° S 06:40:33 10° ESE visible
14 Nov - 08:42:16 10° W 08:50:36 34° SSW 09:04:23 10° SSE visible
14 Nov - 11:08:38 10° SW 11:13:53 12° SW 11:20:02 10° SSW visible
